{"data":{"norad_id":56878,"intl_designator":"2023-083C","name":"STARLINK-6182","alt_names":[],"object_type":"PAYLOAD","status":"ACTIVE","operator":null,"country":"US","launch_date":"2023-06-12","launch_site_code":"AFETR","launch_vehicle":null,"mission":null,"orbit_class":"UNKNOWN","rcs_meters":null,"size_class":null,"mass_kg":null,"dimensions":null,"purposes":["comms"],"wikipedia_slug":null,"has_3d_model":false,"image_url":null,"decayed_at":null,"tle_current":{"epoch":"2026-05-25T00:57:01.624032Z","epoch_age_seconds":65010,"freshness":"FRESH","line1":"1 56878U 23083C   26145.03960213  .00000720  00000+0  35706-4 0  9995","line2":"2 56878  43.0045  14.3154 0001382 264.5219  95.5475 15.27578140163301","mean_motion":15.2757814,"eccentricity":0.0001382,"inclination_deg":43.0045,"raan_deg":14.3154,"arg_perigee_deg":264.5219,"mean_anomaly_deg":95.5475,"bstar":3.5706e-5,"rev_number":16330,"period_min":94.266863494132,"perigee_km":482.10644886626,"apogee_km":484.00288224261,"semimajor_km":6861.1916655544,"source":"CELESTRAK","updated_at":"2026-05-25T13:38:18.166818Z"}}}